Content
SEND FEEDBACK

Daily
Averages
Monthly
Summary
United States of America

YIGO, GUAM


Home > North America > United States > Guam
Elevation: 530 feet     Latitude: 13 32N     Longitude: 144 53E

WEATHER
 
SELECT A DAY
Number of Records: 208,892;   Date Range: 1/1/95 - 7/22/14
 
SHARE

PRINT THIS DATA

[ ← Previous Day ]
WEATHER ALMANAC - MAY 13, 2014
[ Next Day → ]
[ °C ]   °F
Weather ElementAverageHighLow
Temperature83.8 °F90 °F (10:54 am)80.1 °F (2:54 am)
Dewpoint74.1 °F75 °F (1:54 am)72 °F (11:54 am)
Humidity73.2 %85 % (2:54 am)55 % (11:54 am)
Barometer29.87 in29.91 in (7:54 am)29.81 in (3:54 pm)
Wind Speed6.4 mph11.5 mph (3:54 pm)
Weather ElementAverage
Visibility10 mi
Wind DirectionE (90.9 °)

Weather ElementTotal
Precipitation---
Cooling Degree Days20.1 (Base 65)
Growing Degree Days35.1 (Base 50)
Averaged from 23 records on May 13, 2014
WEATHER CONDITIONS BREAKOUT
WIND DIRECTION BREAKOUT
WEATHER BY HOUR - MAY 13, 2014
[ °C ]   °F
Local TimeTemperatureDewpointHumidityBarometerVisibilityWind DirectionWind SpeedGust SpeedPrecipitationEventsConditions
1:54 AM81.0 °F75.0 °F82 %29.88 in10.0 miEast (90°)4.6 mphClear
2:54 AM80.1 °F75.0 °F85 %29.87 in10.0 miEast (80°)3.5 mphClear
3:54 AM80.1 °F75.0 °F85 %29.87 in10.0 miESE (110°)3.5 mphPartly Cloudy
4:54 AM80.1 °F75.0 °F85 %29.88 in10.0 miCalmPartly Cloudy
5:54 AM80.1 °F75.0 °F85 %29.89 in10.0 miCalmPartly Cloudy
6:54 AM81.0 °F75.0 °F82 %29.90 in10.0 miEast (90°)3.5 mphClear
7:54 AM82.9 °F75.0 °F77 %29.91 in10.0 miEast (80°)8.1 mphPartly Cloudy
8:54 AM86.0 °F73.9 °F67 %29.91 in10.0 miENE (70°)6.9 mphPartly Cloudy
9:54 AM87.1 °F73.0 °F63 %29.91 in10.0 miENE (60°)8.1 mphPartly Cloudy
10:54 AM90.0 °F73.0 °F57 %29.89 in10.0 miEast (80°)10.4 mphScattered Clouds
11:54 AM90.0 °F72.0 °F55 %29.89 in10.0 miEast (100°)5.8 mphPartly Cloudy
12:54 PM88.0 °F73.0 °F61 %29.87 in10.0 miNE (40°)4.6 mphMostly Cloudy
1:54 PM89.1 °F73.0 °F59 %29.85 in10.0 miNorth (360°)8.1 mphMostly Cloudy
2:54 PM88.0 °F73.9 °F63 %29.83 in10.0 miEast (90°)10.4 mphScattered Clouds
3:54 PM87.1 °F73.9 °F65 %29.81 in10.0 miEast (90°)11.5 mphPartly Cloudy
4:54 PM84.9 °F73.9 °F69 %29.81 in10.0 miEast (100°)11.5 mphClear
5:54 PM84.0 °F73.9 °F72 %29.81 in10.0 miEast (100°)9.2 mphClear
6:54 PM82.0 °F73.9 °F76 %29.83 in10.0 miESE (110°)9.2 mphClear
7:54 PM82.0 °F73.9 °F76 %29.85 in10.0 miEast (100°)6.9 mphClear
8:54 PM82.0 °F73.9 °F76 %29.87 in10.0 miEast (80°)4.6 mphClear
9:54 PM81.0 °F73.9 °F79 %29.89 in10.0 miEast (90°)6.9 mphClear
10:54 PM81.0 °F75.0 °F82 %29.88 in10.0 miEast (80°)4.6 mphPartly Cloudy
11:54 PM81.0 °F75.0 °F82 %29.87 in10.0 miEast (90°)4.6 mphPartly Cloudy
Hourly data recorded from PGUM, located miles away from Yigo, Guam







STORIES FROM OUR PARTNERS